This demonstration page uses our WeatherBlox Daily Observations layout. Learn more.

Left ArrowRight Arrow

38.80484, -77.04692

Hourly Observations for August 17, 2021

Temp ( °F °C ) Dew Point ( °F °C ) Humidity (%) Winds ( mph kmh ) Pressure ( in mb ) Visibility ( mi km ) Precip ( " mm )
12:29 am 00:29 Cloudy 77 25 73 22.8 88 88 SSE 6 9 30.14 1021 10 16 N/A
12:52 am 00:52 Mostly Cloudy 76 24.4 73 22.8 91 91 SSE 6 9 30.14 1021 10 16 N/A
1:10 am 01:10 Cloudy 76 24.4 73 22.8 91 91 SE 5 7 30.14 1021 10 16 N/A
1:41 am 01:41 Cloudy with Nearby Thunderstorms 75 23.9 71 21.7 88 88 W 29 46 30.16 1021 4 6 0.00 0.00
1:44 am 01:44 Cloudy with Nearby Thunderstorms 73 22.8 68 20 84 84 SSW 16 26 30.15 1021 2 3 0.02 0.51
1:52 am 01:52 Cloudy with Strong Thunderstorms 73 22.8 69 20.6 87 87 S 10 17 30.15 1021 2 3 0.36 9.14
2:11 am 02:11 Cloudy with Nearby Thunderstorms 73 22.8 70 21.1 90 90 SSE 8 13 30.14 1021 8 13 0.18 4.57
2:52 am 02:52 Mostly Cloudy 73 22.8 69 20.6 87 87 S 6 9 30.12 1020 10 16 0.23 5.84
3:20 am 03:20 Cloudy 73 22.8 70 21.1 90 90 SSW 6 9 30.13 1020 10 16 N/A
3:52 am 03:52 Mostly Cloudy 73 22.8 70 21.1 90 90 N N/A 30.12 1020 10 16 N/A
4:35 am 04:35 Cloudy 74 23.3 71 21.7 91 91 N N/A 30.13 1020 10 16 N/A
4:52 am 04:52 Cloudy 75 23.9 71 21.7 88 88 N N/A 30.13 1020 10 16 N/A
5:15 am 05:15 Cloudy 75 23.9 72 22.2 90 90 SE 5 7 30.13 1020 10 16 N/A
5:52 am 05:52 Cloudy 76 24.4 72 22.2 88 88 N N/A 30.14 1021 10 16 N/A
6:31 am 06:31 Cloudy 76 24.4 72 22.2 88 88 E 3 6 30.15 1021 10 16 N/A
6:52 am 06:52 Cloudy 75 23.9 72 22.2 90 90 ESE 3 6 30.15 1021 10 16 N/A
7:52 am 07:52 Cloudy 76 24.4 72 22.2 88 88 N N/A 30.16 1021 10 16 N/A
8:27 am 08:27 Cloudy 77 25 73 22.8 88 88 SE 3 6 30.17 1022 10 16 N/A
8:52 am 08:52 Cloudy 78 25.6 74 23.3 87 87 S 3 6 30.16 1021 10 16 N/A
9:37 am 09:37 Cloudy 79 26.1 74 23.3 85 85 S 7 11 30.16 1021 10 16 N/A
9:52 am 09:52 Cloudy 79 26.1 75 23.9 88 88 S 7 11 30.16 1021 10 16 N/A
10:32 am 10:32 Cloudy 80 26.7 75 23.9 85 85 SSE 7 11 30.17 1022 10 16 N/A
10:52 am 10:52 Cloudy 81 27.2 74 23.3 79 79 S 8 13 30.17 1022 10 16 N/A
11:52 am 11:52 Cloudy 84 28.9 74 23.3 72 72 S 8 13 30.17 1022 10 16 N/A
12:52 pm 12:52 Cloudy 83 28.3 73 22.8 72 72 S 9 15 30.16 1021 10 16 N/A
1:17 pm 13:17 Cloudy 85 29.4 75 23.9 72 72 S 9 15 30.15 1021 10 16 N/A
1:52 pm 13:52 Cloudy 85 29.4 75 23.9 72 72 S 9 15 30.14 1021 10 16 N/A
2:52 pm 14:52 Cloudy 87 30.6 75 23.9 67 67 S 9 15 30.14 1021 10 16 N/A
3:52 pm 15:52 Mostly Cloudy 87 30.6 73 22.8 63 63 S 9 15 30.12 1020 10 16 N/A
4:52 pm 16:52 Mostly Cloudy 87 30.6 71 21.7 59 59 S 7 11 30.11 1020 10 16 N/A
5:52 pm 17:52 Mostly Cloudy 86 30 72 22.2 63 63 S 6 9 30.11 1020 10 16 N/A
6:52 pm 18:52 Mostly Cloudy 84 28.9 74 23.3 72 72 S 6 9 30.11 1020 10 16 N/A
7:52 pm 19:52 Mostly Cloudy 84 28.9 75 23.9 74 74 ESE 9 15 30.11 1020 10 16 N/A
8:52 pm 20:52 Mostly Cloudy 83 28.3 74 23.3 74 74 ESE 10 17 30.11 1020 10 16 N/A
9:52 pm 21:52 Mostly Cloudy 82 27.8 73 22.8 74 74 SSE 10 17 30.13 1020 10 16 N/A
10:52 pm 22:52 Mostly Cloudy 81 27.2 75 23.9 82 82 S 7 11 30.15 1021 10 16 N/A
11:52 pm 23:52 Mostly Cloudy 80 26.7 75 23.9 85 85 SSE 7 11 30.15 1021 10 16 N/A

Powered by AerisWeather